Location: Hains Lake
(37.8540°N, 99.8578°W)
Time: 17:55:32
(UTC+00:00)

Transit 2A - Pass Details

Date: 28 April 2021
Orbit: 602 x 957 km, 66.7° (Epoch: 12 May)

Event Time Altitude Azimuth Distance (km) Brightness Sun altitude
Rises 11:37:22 0° 212° (SSW) 3,099 8.7 -2.6°
Reaches altitude 10° 11:39:48 10° 215° (SW) 2,130 7.8 -2.1°
Maximum altitude 11:44:33 70° 298° (WNW) 690 5.7 -1.2°
Drops below altitude 10° 11:49:00 10° 23° (NNE) 1,990 8.9 -0.4°
Sets 11:51:13 0° 26° (NNE) 2,877 9.7 0.0°
